When you browse on this site, cookies collect data to enhance your experience and personalize the content and advertising you see.
Visit our Privacy Policy to learn more. By continuing to use the site, you agree to this use of cookies and data.
  • In Hungary
  • List of Countries
  • For 7 days
  • Water Temperature
  • Weather Map
  • News
  • Weather Widgets
  • user-avatar
    Login

    Hourly Weather Yasenivtsi

    Today, 28 May, Thursday

    Time Temperature Precipitation Wind Pressure Humidity
    00:00 +9°C° 0 mm 2 mps 739 mmHg 92%
    01:00 +9°C° 0 mm 2 mps 739 mmHg 93%
    02:00 +9°C° 0 mm 2 mps 738 mmHg 94%
    03:00 +8°C° 0 mm 2 mps 738 mmHg 94%
    04:00 +8°C° 0 mm 2 mps 738 mmHg 95%
    05:00 +7°C° 0 mm 2 mps 738 mmHg 95%
    06:00 +9°C° 0.1 mm 2 mps 738 mmHg 92%
    07:00 +10°C° 0.1 mm 2 mps 738 mmHg 89%
    08:00 +12°C° 0.1 mm 3 mps 738 mmHg 86%
    09:00 +13°C° 0.5 mm 3 mps 737 mmHg 81%
    10:00 +14°C° 0.5 mm 3 mps 737 mmHg 76%
    11:00 +17°C° 0.5 mm 4 mps 737 mmHg 72%
    12:00 +17°C° 0.4 mm 4 mps 736 mmHg 71%
    13:00 +17°C° 0.4 mm 4 mps 736 mmHg 70%
    14:00 +17°C° 0.4 mm 5 mps 735 mmHg 70%
    15:00 +17°C° 0.5 mm 4 mps 735 mmHg 72%
    16:00 +17°C° 0.5 mm 4 mps 734 mmHg 74%
    17:00 +17°C° 0.5 mm 4 mps 734 mmHg 76%
    18:00 +15°C° 0.3 mm 4 mps 734 mmHg 80%
    19:00 +13°C° 0.3 mm 3 mps 734 mmHg 84%
    20:00 +12°C° 0.3 mm 3 mps 734 mmHg 88%
    21:00 +11°C° 0 mm 3 mps 734 mmHg 90%
    22:00 +11°C° 0 mm 3 mps 734 mmHg 92%
    23:00 +10°C° 0 mm 3 mps 734 mmHg 94%

    Tomorrow, 29 May, Friday

    Time Temperature Precipitation Wind Pressure Humidity
    00:00 +9°C° 0.1 mm 3 mps 733 mmHg 95%
    01:00 +9°C° 0.1 mm 3 mps 733 mmHg 96%
    02:00 +9°C° 0.1 mm 3 mps 733 mmHg 97%
    03:00 +8°C° 0 mm 4 mps 733 mmHg 97%
    04:00 +8°C° 0 mm 4 mps 733 mmHg 97%
    05:00 +8°C° 0 mm 5 mps 733 mmHg 98%
    06:00 +9°C° 0.1 mm 5 mps 733 mmHg 96%
    07:00 +9°C° 0.1 mm 5 mps 733 mmHg 95%
    08:00 +10°C° 0.1 mm 6 mps 733 mmHg 93%
    09:00 +10°C° 0 mm 6 mps 733 mmHg 92%
    10:00 +11°C° 0 mm 6 mps 733 mmHg 92%
    11:00 +11°C° 0 mm 7 mps 733 mmHg 91%
    12:00 +11°C° 0.2 mm 7 mps 733 mmHg 88%
    13:00 +12°C° 0.2 mm 7 mps 733 mmHg 86%
    14:00 +12°C° 0.2 mm 7 mps 733 mmHg 83%
    15:00 +12°C° 0.5 mm 7 mps 733 mmHg 84%
    16:00 +11°C° 0.5 mm 7 mps 733 mmHg 84%
    17:00 +11°C° 0.5 mm 7 mps 733 mmHg 85%
    18:00 +10°C° 0 mm 6 mps 733 mmHg 86%
    19:00 +9°C° 0 mm 5 mps 733 mmHg 88%
    20:00 +8°C° 0 mm 5 mps 732 mmHg 89%
    21:00 +8°C° 0 mm 5 mps 732 mmHg 90%
    22:00 +8°C° 0 mm 5 mps 732 mmHg 91%
    23:00 +7°C° 0 mm 5 mps 732 mmHg 92%

    Day after tomorrow, 30 May, Saturday

    Time Temperature Precipitation Wind Pressure Humidity
    00:00 +7°C° 0 mm 5 mps 732 mmHg 93%
    01:00 +8°C° 0 mm 5 mps 732 mmHg 93%
    02:00 +8°C° 0 mm 5 mps 732 mmHg 93%
    03:00 +8°C° 0.2 mm 5 mps 731 mmHg 94%
    04:00 +8°C° 0.2 mm 5 mps 731 mmHg 95%
    05:00 +8°C° 0.2 mm 6 mps 731 mmHg 96%
    06:00 +8°C° 0.2 mm 6 mps 731 mmHg 95%
    07:00 +8°C° 0.2 mm 6 mps 731 mmHg 94%
    08:00 +8°C° 0.2 mm 6 mps 731 mmHg 94%
    09:00 +8°C° 0.1 mm 7 mps 731 mmHg 94%
    10:00 +8°C° 0.1 mm 7 mps 731 mmHg 94%
    11:00 +8°C° 0.1 mm 7 mps 731 mmHg 93%
    12:00 +8°C° 0 mm 7 mps 731 mmHg 92%
    13:00 +8°C° 0 mm 7 mps 731 mmHg 91%
    14:00 +7°C° 0 mm 8 mps 730 mmHg 90%
    15:00 +9°C° 0 mm 8 mps 730 mmHg 90%
    16:00 +9°C° 0 mm 8 mps 730 mmHg 89%
    17:00 +9°C° 0 mm 8 mps 729 mmHg 89%
    18:00 +9°C° 0.2 mm 8 mps 729 mmHg 90%
    19:00 +7°C° 0.2 mm 8 mps 728 mmHg 92%
    20:00 +7°C° 0.2 mm 9 mps 728 mmHg 93%
    21:00 +7°C° 1.3 mm 9 mps 727 mmHg 94%
    22:00 +7°C° 1.3 mm 10 mps 727 mmHg 95%
    23:00 +7°C° 1.3 mm 10 mps 726 mmHg 97%

    31 May, Sunday

    Time Temperature Precipitation Wind Pressure Humidity
    00:00 +8°C° 4.2 mm 10 mps 725 mmHg 97%
    01:00 +8°C° 4.2 mm 10 mps 725 mmHg 97%
    02:00 +9°C° 4.2 mm 10 mps 724 mmHg 97%
    03:00 +10°C° 1.3 mm 9 mps 724 mmHg 97%
    04:00 +10°C° 1.3 mm 8 mps 724 mmHg 97%
    05:00 +11°C° 1.3 mm 7 mps 724 mmHg 97%
    06:00 +11°C° 0.4 mm 7 mps 725 mmHg 96%
    07:00 +11°C° 0.4 mm 6 mps 725 mmHg 95%
    08:00 +12°C° 0.4 mm 5 mps 725 mmHg 93%
    09:00 +12°C° 0.1 mm 5 mps 726 mmHg 92%
    10:00 +12°C° 0.1 mm 5 mps 727 mmHg 91%
    11:00 +13°C° 0.1 mm 5 mps 727 mmHg 89%
    12:00 +13°C° 0.1 mm 4 mps 728 mmHg 88%
    13:00 +14°C° 0.1 mm 4 mps 728 mmHg 87%
    14:00 +15°C° 0.1 mm 4 mps 728 mmHg 85%
    15:00 +15°C° 0.2 mm 4 mps 728 mmHg 85%
    16:00 +16°C° 0.2 mm 3 mps 728 mmHg 85%
    17:00 +16°C° 0.2 mm 3 mps 728 mmHg 85%
    18:00 +14°C° 0.7 mm 3 mps 728 mmHg 89%
    19:00 +14°C° 0.7 mm 3 mps 728 mmHg 93%
    20:00 +13°C° 0.7 mm 3 mps 728 mmHg 97%
    21:00 +13°C° 0.3 mm 3 mps 728 mmHg 98%
    22:00 +13°C° 0.3 mm 3 mps 728 mmHg 98%
    23:00 +12°C° 0.3 mm 3 mps 729 mmHg 98%

    1 June, Monday

    Time Temperature Precipitation Wind Pressure Humidity
    00:00 +12°C° 0.3 mm 4 mps 729 mmHg 98%
    01:00 +13°C° 0.3 mm 4 mps 728 mmHg 97%
    02:00 +13°C° 0.3 mm 4 mps 728 mmHg 97%
    03:00 +12°C° 0.2 mm 4 mps 728 mmHg 97%
    04:00 +12°C° 0.2 mm 5 mps 728 mmHg 97%
    05:00 +12°C° 0.2 mm 5 mps 728 mmHg 96%
    06:00 +12°C° 0.3 mm 5 mps 728 mmHg 95%
    07:00 +11°C° 0.3 mm 6 mps 729 mmHg 94%
    08:00 +11°C° 0.3 mm 6 mps 729 mmHg 93%
    09:00 +11°C° 0.4 mm 6 mps 729 mmHg 92%
    10:00 +11°C° 0.4 mm 6 mps 729 mmHg 92%
    11:00 +11°C° 0.4 mm 6 mps 730 mmHg 92%
    12:00 +13°C° 0.5 mm 6 mps 730 mmHg 90%
    13:00 +13°C° 0.5 mm 6 mps 730 mmHg 89%
    14:00 +14°C° 0.5 mm 6 mps 730 mmHg 88%
    15:00 +14°C° 0.3 mm 6 mps 730 mmHg 88%
    16:00 +14°C° 0.3 mm 6 mps 730 mmHg 87%
    17:00 +14°C° 0.3 mm 5 mps 730 mmHg 87%
    18:00 +13°C° 0.3 mm 5 mps 730 mmHg 89%
    19:00 +13°C° 0.3 mm 4 mps 730 mmHg 91%
    20:00 +12°C° 0.3 mm 4 mps 730 mmHg 92%
    21:00 +12°C° 0 mm 4 mps 730 mmHg 94%
    22:00 +11°C° 0 mm 3 mps 730 mmHg 95%
    23:00 +11°C° 0 mm 3 mps 731 mmHg 96%

    2 June, Tuesday

    Time Temperature Precipitation Wind Pressure Humidity
    00:00 +10°C° 0 mm 3 mps 731 mmHg 96%
    01:00 +10°C° 0 mm 3 mps 731 mmHg 97%
    02:00 +10°C° 0 mm 3 mps 731 mmHg 98%
    03:00 +10°C° 0 mm 3 mps 731 mmHg 98%
    04:00 +10°C° 0 mm 3 mps 731 mmHg 98%
    05:00 +9°C° 0 mm 3 mps 731 mmHg 98%
    06:00 +11°C° 0.3 mm 3 mps 732 mmHg 97%
    07:00 +12°C° 0.3 mm 3 mps 732 mmHg 96%
    08:00 +13°C° 0.3 mm 3 mps 732 mmHg 96%
    09:00 +14°C° 0.4 mm 4 mps 732 mmHg 94%
    10:00 +14°C° 0.4 mm 4 mps 733 mmHg 92%
    11:00 +15°C° 0.4 mm 4 mps 733 mmHg 90%
    12:00 +15°C° 0.5 mm 4 mps 733 mmHg 90%
    13:00 +15°C° 0.5 mm 5 mps 732 mmHg 89%
    14:00 +15°C° 0.5 mm 6 mps 732 mmHg 89%
    15:00 +16°C° 0.1 mm 6 mps 732 mmHg 87%
    16:00 +16°C° 0.1 mm 6 mps 732 mmHg 85%
    17:00 +16°C° 0.1 mm 6 mps 732 mmHg 83%
    18:00 +16°C° 0 mm 5 mps 732 mmHg 84%
    19:00 +15°C° 0 mm 5 mps 732 mmHg 85%
    20:00 +15°C° 0 mm 5 mps 732 mmHg 87%
    21:00 +14°C° 0 mm 4 mps 732 mmHg 88%
    22:00 +13°C° 0 mm 4 mps 732 mmHg 89%
    23:00 +12°C° 0 mm 4 mps 732 mmHg 91%
    Show more